Regional Weather Roundup
Issued by NWS

Home | Current Version | Previous Version | Graphics & Text | Print | Product List | Glossary On
Versions: 1 2 3 4 5 6 7 8 9 10 11 12 13 14 15 16 17 18 19 20 21 22 23 24 25 26 27 28 29 30 31 32 33 34 35 36 37 38 39 40 41 42 43 44 45 46 47 48 49 50
000
ASUS43 KDTX 212010
RWRMI
MICHIGAN HOURLY REGIONAL WEATHER ROUNDUP
NATIONAL WEATHER SERVICE DETROIT/PONTIAC MI
400 PM EDT MON AUG 21 2017

NOTE: "FAIR" INDICATES FEW OR NO CLOUDS BELOW 12,000 FEET WITH NO
SIGNIFICANT WEATHER AND/OR OBSTRUCTION TO VISIBILITY.

MIZ047>049-052>055-059>063-066>070-074>076-081>083-212100-
SOUTHEAST LOWER MICHIGAN

CITY           SKY/WX    TMP DP  RH WIND       PRES   REMARKS
ADRIAN         SUNNY     85  32  15 SW8       30.05F
ALMA           MOSUNNY   84  67  54 SW5       30.02F
ANN ARBOR      CLOUDY    87  70  56 S14       30.03F HX  92
BAD AXE        PTSUNNY   84  67  57 S3        30.04F
CARO           MOSUNNY   85  67  53 SE3       30.03F
DETROIT CITY   CLOUDY    82  63  52 S9        30.05F
DETROIT        PTSUNNY   82  67  60 SE6       30.05F
FLINT          MOSUNNY   85  66  53 S8        30.03F
GROSSE ILE     MOSUNNY   82  69  66 SE5       30.04F
HILLSDALE      CLOUDY    84  68  58 SW10G17   30.05F
HOWELL         CLOUDY    81  66  59 S9        30.04F

CITY           SKY/WX    TMP DP  RH WIND       PRES   REMARKS
JACKSON        PTSUNNY   85  68  56 SW8       30.04F
LAMBERTVILLE   SUNNY     87  71  58 SW5       30.04S HX  92
LANSING        MOSUNNY   85  68  56 SW7       30.03F
LAPEER         PTSUNNY   86  64  48 SE5       30.05F
MASON          CLOUDY    85  69  59 CALM      30.03F
MONROE         SUNNY     86  70  59 S7        30.03F HX  90
MT. CLEMENS    PTSUNNY   84  70  62 S16       30.03F
PONTIAC        CLOUDY    85  67  54 S9        30.03F
PORT HOPE        N/A     76  71  85 SE10      30.02F
PORT HURON     MOSUNNY   86  64  48 S7        30.05F
TRI CITIES     PTSUNNY   85  70  60 SE6       30.02F
MIDLAND        FAIR      85  67  53 S6        30.01F
TROY           SUNNY     87  61  40 S9        30.07S
SAGINAW HB     MOSUNNY   82  68  61 SE8       30.01F
$$
MIZ043>046-050>051-056>058-064>065-071>073-077>080-212100-
SOUTHWEST LOWER MICHIGAN

CITY           SKY/WX    TMP DP  RH WIND       PRES   REMARKS
BATTLE CREEK   MOSUNNY   83  71  67 NW7       30.04F
BENTON HARBOR  PTSUNNY   82  69  64 S9        30.03F
BIG RAPIDS     CLOUDY    79  69  71 SW7       30.02F
COLDWATER      MOSUNNY   87  65  48 SW12      30.04F
FREMONT        FAIR      78  72  81 SW7       30.00F
HOLLAND        CLOUDY    77  70  79 SE6       30.01F
GRAND RAPIDS   CLOUDY    82  72  71 SW8       30.02F
IONIA          FAIR      84  69  60 SW9       30.02F
KALAMAZOO      MOSUNNY   85  68  56 VRB6      30.03F
LUDINGTON      CLOUDY    75  70  83 S5        29.97F
MARSHALL       PTSUNNY   85  70  59 NW5       30.03F
MOUNT PLEASANT CLOUDY    88  65  46 S7        30.01F
MUSKEGON       PTSUNNY   80  70  71 SE9       29.98F
SOUTH HAVEN    CLOUDY    80  72  76 S5        30.02F
$$
MIZ016>042-212100-
NORTHERN LOWER MICHIGAN

CITY           SKY/WX    TMP DP  RH WIND       PRES   REMARKS
ALPENA         SUNNY     85  70  60 VRB6      30.00F
BEAVER ISLAND  CLOUDY    74  68  80 E3        29.99F
BELLAIRE       MOSUNNY   82  65  56 S6        29.98F
CADILLAC       CLOUDY    84  65  53 S8        30.02F
CHARLEVOIX     PTSUNNY   77  71  81 N5        30.01F
FRANKFORT      MOSUNNY   80  71  74 W6        29.99F
GAYLORD        MOSUNNY   80  63  55 SW8       30.03F
GRAYLING       SUNNY     83  62  48 SW5       30.02F
HARBOR SPRINGS MOSUNNY   76  69  80 SW5       29.99F
HOUGHTON LAKE  CLOUDY    83  62  49 SW6       30.03F
MANISTEE       CLOUDY    80  69  69 S3        29.98F
OSCODA         CLOUDY    83  67  58 S9        30.01F
PELLSTON       MOSUNNY   81  70  69 CALM      30.00F
ROGERS CITY    SUNNY     75  68  77 E6        30.01F
TRAVERSE CITY  PTSUNNY   86  64  47 VRB7      29.97F
$$
MIZ007>008-015-212100-
EASTERN UPPER MICHIGAN

CITY           SKY/WX    TMP DP  RH WIND       PRES   REMARKS
KINROSS        MOSUNNY   78  62  57 E6        29.99F
MACKINAC ISLAN MOSUNNY   77  64  65 CALM      29.99F
NEWBERRY       SUNNY     77  64  65 SE3       29.98F
S. S. MARIE    SUNNY     81  58  45 NW5       29.98F
MUNISING         N/A     70  64  81 NE8       29.96F
$$
MIZ004>006-011>014-085-212100-
CENTRAL UPPER MICHIGAN

CITY           SKY/WX    TMP DP  RH WIND       PRES   REMARKS
MANISTIQUE     CLOUDY    76  58  53 SE5       29.97F
ESCANABA       MOSUNNY   74  64  71 SE12      29.96F
MENOMINEE      MOSUNNY   77  67  71 SE6       29.95F
SAWYER-GWINN   MOSUNNY   75  59  57 NE8       29.98F
$$
MIZ001>003-009>011-084-212100-
WESTERN UPPER MICHIGAN

CITY           SKY/WX    TMP DP  RH WIND       PRES   REMARKS
IRON MOUNTAIN  MOSUNNY   79  63  57 S7        29.96F
HOUGHTON       CLOUDY    74  58  57 CALM      29.97F
COPPER HARBOR    N/A     66  59  78 N6        29.97F
IRONWOOD       CLOUDY    70  60  70 E6        29.96F
$$

ABBREVIATIONS USED IN REMARKS
   TC - TEMPERATURE IN CELSIUS
  WCI - WIND CHILL INDEX
   HX - HEAT INDEX
  VSB - VISIBILITY





USA.gov is the U.S. government's official web portal to all federal, state and local government web resources and services.